SL-16 DEB, 22426

Orbit data source: Space-Track

SL-16 DEB, 22426 is space debris in LEO originally from a launch on Fri, 25 Dec 1992 UTC launched from the Tyuratam Missile And Space Complex (TTMTR). Debris objects in space refer to the collection of defunct objects orbiting the Earth. Examples of debris include non-operational satellites, rocket bodies, and fragments generated from explosions, collisions, or faulty payload assembly.

Loading next visibility...
Identifier
22426, 1992-093DT
Orbit
LEO
Country
Flag of CISCIS
Related business
Manufacturer
Unknown
Mission
Spacecraft
Bus & Motor
Unknown
Mass
Unknown
Launch date (UTC)
1992-12-25 (33 years ago)
Launch vehicle
Unknown
Launch site
Tyuratam Missile And Space Complex (TTMTR)
Object type
Payload
Rocket body
Debris
Shape & HBR
Unknown shape, 0.2 m
Radar Cross Section
Medium (>0.1 m² and <1 m²)

Expand to show TLE details & history
Last TLE update: 3 days ago

TLE from 3 days ago
0 SL-16 DEB
1 22426U 92093DT  26171.37301088  .00001523  00000-0  57041-3 0  9997
2 22426  71.3488 280.9538 0120889 207.5507 211.2776 14.29264469723643
Epoch: 2026-06-20T08:57Z
TLE epoch observation values (Epoch: 2026-06-20T08:57:08.140Z)
Latitude
53.67676°
Longitude
-94.74466°
Altitude
876.871 km
Speed
7.381 km/s
True Right ascension
20h 32m 30s
True Declination
53° 30' 55"
Sunlit
Object was in daylight at epoch
Visualization orbit readout
Latitude
Unknown
Longitude
Unknown
Altitude
Unknown
Speed
Unknown
Apparent Right ascension
Unknown
Apparent Declination
Unknown
Sunlit
N/A
Visualization observer readout
Local Sidereal Time
11:35:54
Azimuth
Unknown
Elevation
Unknown
Doppler factor
Unknown
Orbital elements
Apogee altitude
878.747 km
Perigee altitude
705.387 km
Semi-major axis
7,170.204 km
Eccentricity
0.01209
Inclination
71.3488°
RAAN
280.9538°
Arg. of periapsis
207.5507°
True anomaly
210.56757°
Mean anomaly
211.2776°
Eccentric anomaly
210.92167°
Mean motion
3.57475 °/min
Orbital period
100.71 mins
BSTAR
0.00057041
Loading maneuver chart data...
Computing Atmospheric mass density...
Loading historical data...
Loading historical data...
Loading historical data...
Loading historical data...
Loading historical data...
Loading historical data...
Loading historical data...

Documentation

Showing up to 5 results
|